F1ZVN-13 Weather Reports


time (UTC)temp
C
wind
direction
speed
KPH
gust
KPH
rain 1hr
cm
rain 24hr
cm
rain mn
cm
humidity
%
barometer
mb
20260504160351 5 180 0.0 0.0 0.00 0.00 0.00 91 1002.3
20260504160147 5 180 0.0 0.0 0.00 0.00 0.00 91 1002.2
20260504151117 5 180 0.0 0.0 0.00 0.00 0.00 92 1002.6
20260504150917 5 180 0.0 0.0 0.00 0.00 0.00 91 1002.6
20260504150716 5 180 0.0 0.0 0.00 0.00 0.00 90 1002.6
20260504150513 5 180 0.0 0.0 0.00 0.00 0.00 90 1002.6
20260504150111 6 180 0.0 0.0 0.00 0.00 0.00 91 1002.6
20260504141245 7 180 0.0 0.0 0.00 0.00 0.00 82 1002.7
20260504140436 7 180 0.0 0.0 0.00 0.00 0.00 84 1002.7
20260504140238 7 180 0.0 0.0 0.00 0.00 0.00 85 1002.7
20260504130801 7 180 0.0 0.0 0.00 0.00 0.00 82 1003.1
20260504130602 7 180 0.0 0.0 0.00 0.00 0.00 79 1002.9
20260504130357 7 180 0.0 0.0 0.00 0.00 0.00 79 1002.9
20260504110657 7 180 0.0 0.0 0.00 0.00 0.00 77 1004.0
20260504110249 7 180 0.0 0.0 0.00 0.00 0.00 74 1003.8
20260504100608 6 180 0.0 0.0 0.00 0.00 0.00 81 1004.3
20260504100408 6 180 0.0 0.0 0.00 0.00 0.00 81 1004.3
20260504100210 6 180 0.0 0.0 0.00 0.00 0.00 78 1004.3
20260504081903 5 180 0.0 0.0 0.00 0.00 0.00 89 1004.6
20260504081701 5 180 0.0 0.0 0.00 0.00 0.00 90 1004.6
20260504081500 5 180 0.0 0.0 0.00 0.00 0.00 91 1004.6
20260504081258 5 180 0.0 0.0 0.00 0.00 0.00 91 1004.6
20260504080655 5 180 0.0 0.0 0.00 0.00 0.00 92 1004.6
20260504080452 5 180 0.0 0.0 0.00 0.00 0.00 91 1004.6
20260504080254 5 180 0.0 0.0 0.00 0.00 0.00 92 1004.6
20260504070215 3 180 0.0 0.0 0.00 0.00 0.00 95 1004.6
20260504060137 3 180 0.0 0.0 0.00 0.00 0.00 90 1004.3
20260504050701 3 180 0.0 0.0 0.00 0.00 0.00 89 1004.3
20260504050501 3 180 0.0 0.0 0.00 0.00 0.00 87 1004.5
20260504050258 3 180 0.0 0.0 0.00 0.00 0.00 87 1004.3
20260504045855 3 180 0.0 0.0 0.00 0.00 0.00 89 1004.3
20260504045656 3 180 0.0 0.0 0.00 0.00 0.00 90 1004.2
20260504045453 3 180 0.0 0.0 0.00 0.00 0.00 90 1004.2
20260504045253 3 180 0.0 0.0 0.00 0.00 0.00 90 1004.2
20260504045051 3 180 0.0 0.0 0.00 0.00 0.00 89 1004.2
20260504044851 3 180 0.0 0.0 0.00 0.00 0.00 89 1004.2
20260504044648 3 180 0.0 0.0 0.00 0.00 0.00 88 1004.2
20260504044524 3 180 0.0 0.0 0.00 0.00 0.00 89 1004.2
20260504044448 3 180 0.0 0.0 0.00 0.00 0.00 89 1004.2
20260504044246 3 180 0.0 0.0 0.00 0.00 0.00 88 1004.2
20260504044046 3 180 0.0 0.0 0.00 0.00 0.00 87 1004.2
20260504043843 4 180 0.0 0.0 0.00 0.00 0.00 85 1004.2
20260504043441 3 180 0.0 0.0 0.00 0.00 0.00 86 1004.3
20260504043320 3 180 0.0 0.0 0.00 0.00 0.00 88 1004.2
20260504043242 3 180 0.0 0.0 0.00 0.00 0.00 88 1004.2
20260504042838 3 180 0.0 0.0 0.00 0.00 0.00 87 1004.5
20260504042636 3 180 0.0 0.0 0.00 0.00 0.00 87 1004.3
20260504042436 3 180 0.0 0.0 0.00 0.00 0.00 87 1004.3
20260504042317 3 180 0.0 0.0 0.00 0.00 0.00 88 1004.3
20260504042234 3 180 0.0 0.0 0.00 0.00 0.00 88 1004.3
20260504041831 3 180 0.0 0.0 0.00 0.00 0.00 90 1004.5
20260504041428 3 180 0.0 0.0 0.00 0.00 0.00 90 1004.5
20260504041229 3 180 0.0 0.0 0.00 0.00 0.00 89 1004.3
20260504040826 3 180 0.0 0.0 0.00 0.00 0.00 92 1004.5
20260504040624 3 180 0.0 0.0 0.00 0.00 0.00 92 1004.5
20260504040424 3 180 0.0 0.0 0.00 0.00 0.00 92 1004.5
20260504040221 3 180 0.0 0.0 0.00 0.00 0.00 92 1004.5
20260504035819 3 180 0.0 0.0 0.00 0.00 0.00 92 1004.5
20260504035619 3 180 0.0 0.0 0.00 0.00 0.00 91 1004.5
20260504035416 3 180 0.0 0.0 0.00 0.00 0.00 92 1004.5
20260504035216 3 180 0.0 0.0 0.00 0.00 0.00 91 1004.5
20260504035014 3 180 0.0 0.0 0.00 0.00 0.00 91 1004.5
20260504034814 3 180 0.0 0.0 0.00 0.00 0.00 92 1004.3
20260504034452 3 180 0.0 0.0 0.00 0.00 0.00 92 1004.3
20260504034412 3 180 0.0 0.0 0.00 0.00 0.00 92 1004.3
20260504034213 3 180 0.0 0.0 0.00 0.00 0.00 92 1004.3
20260504034009 3 180 0.0 0.0 0.00 0.00 0.00 91 1004.3
20260504033806 3 180 0.0 0.0 0.00 0.00 0.00 89 1004.3
20260504033404 3 180 0.0 0.0 0.00 0.00 0.00 92 1004.3
20260504033204 3 180 0.0 0.0 0.00 0.00 0.00 92 1004.5
20260504033001 3 180 0.0 0.0 0.00 0.00 0.00 91 1004.5
20260504032802 3 180 0.0 0.0 0.00 0.00 0.00 91 1004.5
20260504032600 3 180 0.0 0.0 0.00 0.00 0.00 92 1004.5
20260504032359 3 180 0.0 0.0 0.00 0.00 0.00 93 1004.3
20260504032156 3 180 0.0 0.0 0.00 0.00 0.00 94 1004.5
20260504031957 3 180 0.0 0.0 0.00 0.00 0.00 94 1004.5
20260504031758 3 180 0.0 0.0 0.00 0.00 0.00 94 1004.5
20260504031754 3 180 0.0 0.0 0.00 0.00 0.00 94 1004.5
20260504031600 3 180 0.0 0.0 0.00 0.00 0.00 95 1004.5
20260504031555 3 180 0.0 0.0 0.00 0.00 0.00 95 1004.5
20260504031352 3 180 0.0 0.0 0.00 0.00 0.00 94 1004.6
20260504031154 3 180 0.0 0.0 0.00 0.00 0.00 95 1004.6
20260504031033 3 180 0.0 0.0 0.00 0.00 0.00 94 1004.6
20260504030949 3 180 0.0 0.0 0.00 0.00 0.00 94 1004.6
20260504030547 3 180 0.0 0.0 0.00 0.00 0.00 95 1004.6
20260504030347 3 180 0.0 0.0 0.00 0.00 0.00 95 1004.6
20260504030144 3 180 0.0 0.0 0.00 0.00 0.00 95 1004.6
20260504025944 3 180 0.0 0.0 0.00 0.00 0.00 94 1004.6
20260504025934 3 180 0.0 0.0 0.00 0.00 0.00 94 1004.6
20260504025742 3 180 0.0 0.0 0.00 0.00 0.00 94 1004.6
20260504025542 3 180 0.0 0.0 0.00 0.00 0.00 94 1004.6
20260504025339 3 180 0.0 0.0 0.00 0.00 0.00 94 1004.5
20260504025145 3 180 0.0 0.0 0.00 0.00 0.00 94 1004.5
20260504025139 3 180 0.0 0.0 0.00 0.00 0.00 94 1004.5
20260504024937 3 180 0.0 0.0 0.00 0.00 0.00 94 1004.6
20260504024737 3 180 0.0 0.0 0.00 0.00 0.00 94 1004.6
20260504024534 3 180 0.0 0.0 0.00 0.00 0.00 95 1004.6
20260504024335 3 180 0.0 0.0 0.00 0.00 0.00 95 1004.5
20260504024132 3 180 0.0 0.0 0.00 0.00 0.00 92 1004.5
20260504024115 3 180 0.0 0.0 0.00 0.00 0.00 92 1004.5
20260504023936 3 180 0.0 0.0 0.00 0.00 0.00 91 1004.5
20260504023729 3 180 0.0 0.0 0.00 0.00 0.00 92 1004.5
20260504023530 3 180 0.0 0.0 0.00 0.00 0.00 92 1004.5
20260504023327 3 180 0.0 0.0 0.00 0.00 0.00 91 1004.3
20260504023127 3 180 0.0 0.0 0.00 0.00 0.00 89 1004.3
20260504022924 3 180 0.0 0.0 0.00 0.00 0.00 91 1004.5
20260504022725 4 180 0.0 0.0 0.00 0.00 0.00 90 1004.3
20260504022522 4 180 0.0 0.0 0.00 0.00 0.00 88 1004.5
20260504022322 4 180 0.0 0.0 0.00 0.00 0.00 89 1004.3
20260504021920 3 180 0.0 0.0 0.00 0.00 0.00 93 1004.3
20260504021717 3 180 0.0 0.0 0.00 0.00 0.00 92 1004.3
20260504021522 3 180 0.0 0.0 0.00 0.00 0.00 92 1004.3
20260504021315 3 180 0.0 0.0 0.00 0.00 0.00 93 1004.3
20260504021117 3 180 0.0 0.0 0.00 0.00 0.00 92 1004.3
20260504020917 3 180 0.0 0.0 0.00 0.00 0.00 92 1004.3
20260504020914 3 180 0.0 0.0 0.00 0.00 0.00 92 1004.3
20260504020712 3 180 0.0 0.0 0.00 0.00 0.00 93 1004.5
20260504020532 3 180 0.0 0.0 0.00 0.00 0.00 95 1004.3
20260504020510 3 180 0.0 0.0 0.00 0.00 0.00 95 1004.5
20260504020310 3 180 0.0 0.0 0.00 0.00 0.00 95 1004.3
20260504020110 3 180 0.0 0.0 0.00 0.00 0.00 95 1004.3
20260504015908 3 180 0.0 0.0 0.00 0.00 0.00 95 1004.5
20260504015705 3 180 0.0 0.0 0.00 0.00 0.00 95 1004.5
20260504015505 3 180 0.0 0.0 0.00 0.00 0.00 94 1004.5
20260504015304 3 180 0.0 0.0 0.00 0.00 0.00 94 1004.5
20260504015104 3 180 0.0 0.0 0.00 0.00 0.00 88 1004.5
20260504014900 3 180 0.0 0.0 0.00 0.00 0.00 93 1004.3
20260504014702 3 180 0.0 0.0 0.00 0.00 0.00 92 1004.5
20260504014459 3 180 0.0 0.0 0.00 0.00 0.00 92 1004.3
20260504014457 3 180 0.0 0.0 0.00 0.00 0.00 92 1004.3
20260504014257 3 180 0.0 0.0 0.00 0.00 0.00 95 1004.3
20260504014100 3 180 0.0 0.0 0.00 0.00 0.00 95 1004.5
20260504013855 3 180 0.0 0.0 0.00 0.00 0.00 95 1004.5
20260504013652 3 180 0.0 0.0 0.00 0.00 0.00 95 1004.5
20260504013458 3 180 0.0 0.0 0.00 0.00 0.00 95 1004.5
20260504013250 3 180 0.0 0.0 0.00 0.00 0.00 95 1004.5
20260504013050 3 180 0.0 0.0 0.00 0.00 0.00 96 1004.5
20260504012848 3 180 0.0 0.0 0.00 0.00 0.00 96 1004.3
20260504012738 3 180 0.0 0.0 0.00 0.00 0.00 95 1004.5
20260504012648 3 180 0.0 0.0 0.00 0.00 0.00 95 1004.5
20260504012445 3 180 0.0 0.0 0.00 0.00 0.00 94 1004.3
20260504012245 3 180 0.0 0.0 0.00 0.00 0.00 93 1004.5
20260504012043 3 180 0.0 0.0 0.00 0.00 0.00 95 1004.5
20260504011643 3 180 0.0 0.0 0.00 0.00 0.00 94 1004.5
20260504011238 3 180 0.0 0.0 0.00 0.00 0.00 94 1004.6
20260504011038 3 180 0.0 0.0 0.00 0.00 0.00 94 1004.6
20260504010910 3 180 0.0 0.0 0.00 0.00 0.00 94 1004.5
20260504010835 3 180 0.0 0.0 0.00 0.00 0.00 94 1004.5
20260504010433 3 180 0.0 0.0 0.00 0.00 0.00 94 1004.5
20260504005629 3 180 0.0 0.0 0.00 0.00 0.00 93 1004.7
20260504005514 4 180 0.0 0.0 0.00 0.00 0.00 93 1004.7
20260504005428 4 180 0.0 0.0 0.00 0.00 0.00 93 1004.7
20260504005225 4 180 0.0 0.0 0.00 0.00 0.00 92 1004.7
20260504004909 4 180 0.0 0.0 0.00 0.00 0.00 92 1004.6
20260504004823 4 180 0.0 0.0 0.00 0.00 0.00 92 1004.6
20260504004628 4 180 0.0 0.0 0.00 0.00 0.00 93 1004.7
20260504004420 4 180 0.0 0.0 0.00 0.00 0.00 92 1004.6
20260504004221 4 180 0.0 0.0 0.00 0.00 0.00 89 1004.6
20260504003819 3 180 0.0 0.0 0.00 0.00 0.00 94 1004.5
20260504003622 3 180 0.0 0.0 0.00 0.00 0.00 95 1004.6
20260504003615 3 180 0.0 0.0 0.00 0.00 0.00 95 1004.6
20260504003416 3 180 0.0 0.0 0.00 0.00 0.00 94 1004.6
20260504003214 3 180 0.0 0.0 0.00 0.00 0.00 95 1004.5
20260504002911 3 180 0.0 0.0 0.00 0.00 0.00 95 1004.6
20260504002811 3 180 0.0 0.0 0.00 0.00 0.00 95 1004.6
20260504002611 3 180 0.0 0.0 0.00 0.00 0.00 95 1004.6
20260504002412 3 180 0.0 0.0 0.00 0.00 0.00 94 1004.6
20260504002208 3 180 0.0 0.0 0.00 0.00 0.00 94 1004.6
20260504001806 3 180 0.0 0.0 0.00 0.00 0.00 93 1004.7
20260504001604 3 180 0.0 0.0 0.00 0.00 0.00 93 1004.7
20260504001403 3 180 0.0 0.0 0.00 0.00 0.00 94 1004.6
20260504001201 3 180 0.0 0.0 0.00 0.00 0.00 95 1004.7
20260504001001 3 180 0.0 0.0 0.00 0.00 0.00 95 1004.7
20260504000758 3 180 0.0 0.0 0.00 0.00 0.00 95 1004.7
20260504000356 3 180 0.0 0.0 0.00 0.00 0.00 95 1004.9
20260504000157 3 180 0.0 0.0 0.00 0.00 0.00 95 1004.9
20260503235954 3 180 0.0 0.0 0.00 0.00 0.00 95 1004.9
20260503235800 3 180 0.0 0.0 0.00 0.00 0.00 94 1004.9
20260503235754 3 180 0.0 0.0 0.00 0.00 0.00 94 1004.9
20260503235552 3 180 0.0 0.0 0.00 0.00 0.00 95 1004.9
20260503235351 3 180 0.0 0.0 0.00 0.00 0.00 95 1004.9
20260503235148 3 180 0.0 0.0 0.00 0.00 0.00 95 1004.9
20260503234948 3 180 0.0 0.0 0.00 0.00 0.00 95 1004.9
20260503234825 3 180 0.0 0.0 0.00 0.00 0.00 95 1004.9
20260503234747 3 180 0.0 0.0 0.00 0.00 0.00 95 1004.9
20260503234547 3 180 0.0 0.0 0.00 0.00 0.00 95 1005.0
20260503234143 3 180 0.0 0.0 0.00 0.00 0.00 93 1005.0
20260503233757 3 180 0.0 0.0 0.00 0.00 0.00 92 1005.1
20260503233340 3 180 0.0 0.0 0.00 0.00 0.00 93 1005.0
20260503233210 3 180 0.0 0.0 0.00 0.00 0.00 94 1005.1
20260503233136 3 180 0.0 0.0 0.00 0.00 0.00 94 1005.1
20260503232936 3 180 0.0 0.0 0.00 0.00 0.00 94 1005.1
20260503232734 3 180 0.0 0.0 0.00 0.00 0.00 94 1005.1
20260503232534 3 180 0.0 0.0 0.00 0.00 0.00 94 1005.1
20260503232332 3 180 0.0 0.0 0.00 0.00 0.00 94 1005.1
20260503232132 3 180 0.0 0.0 0.00 0.00 0.00 89 1005.1
20260503231929 3 180 0.0 0.0 0.00 0.00 0.00 93 1005.2
20260503231729 3 180 0.0 0.0 0.00 0.00 0.00 93 1005.2
20260503231526 3 180 0.0 0.0 0.00 0.00 0.00 94 1005.2
20260503231326 3 180 0.0 0.0 0.00 0.00 0.00 94 1005.2
20260503231124 3 180 0.0 0.0 0.00 0.00 0.00 95 1005.2
20260503230924 3 180 0.0 0.0 0.00 0.00 0.00 95 1005.2
20260503230728 3 180 0.0 0.0 0.00 0.00 0.00 95 1005.2
20260503230527 3 180 0.0 0.0 0.00 0.00 0.00 95 1005.2
20260503230337 3 180 0.0 0.0 0.00 0.00 0.00 95 1005.2
20260503230200 3 180 0.0 0.0 0.00 0.00 0.00 95 1005.2
20260503230120 3 180 0.0 0.0 0.00 0.00 0.00 95 1005.2
20260503225917 4 180 0.0 0.0 0.00 0.00 0.00 94 1005.2
20260503225716 4 180 0.0 0.0 0.00 0.00 0.00 93 1005.2
20260503225514 4 180 0.0 0.0 0.00 0.00 0.00 93 1005.2
20260503225314 4 180 0.0 0.0 0.00 0.00 0.00 93 1005.2
20260503225113 4 180 0.0 0.0 0.00 0.00 0.00 94 1005.2
20260503224915 3 180 0.0 0.0 0.00 0.00 0.00 94 1005.2
20260503224710 4 180 0.0 0.0 0.00 0.00 0.00 94 1005.2
20260503224509 4 180 0.0 0.0 0.00 0.00 0.00 95 1005.2
20260503224306 4 180 0.0 0.0 0.00 0.00 0.00 95 1005.4
20260503224114 4 180 0.0 0.0 0.00 0.00 0.00 95 1005.2
20260503223904 4 180 0.0 0.0 0.00 0.00 0.00 95 1005.2
20260503223710 4 180 0.0 0.0 0.00 0.00 0.00 95 1005.2
20260503223301 4 180 0.0 0.0 0.00 0.00 0.00 95 1005.2
20260503223059 4 180 0.0 0.0 0.00 0.00 0.00 95 1005.1
20260503222859 4 180 0.0 0.0 0.00 0.00 0.00 95 1005.1
20260503222656 4 180 0.0 0.0 0.00 0.00 0.00 95 1005.1
20260503222535 4 180 0.0 0.0 0.00 0.00 0.00 95 1005.2
20260503222456 4 180 0.0 0.0 0.00 0.00 0.00 95 1005.2
20260503222254 4 180 0.0 0.0 0.00 0.00 0.00 95 1005.2
20260503222054 4 180 0.0 0.0 0.00 0.00 0.00 95 1005.2
20260503221851 4 180 0.0 0.0 0.00 0.00 0.00 95 1005.4
20260503221652 4 180 0.0 0.0 0.00 0.00 0.00 94 1005.4
20260503221449 4 180 0.0 0.0 0.00 0.00 0.00 94 1005.4
20260503221249 4 180 0.0 0.0 0.00 0.00 0.00 94 1005.5
20260503220847 4 180 0.0 0.0 0.00 0.00 0.00 92 1005.4
20260503220644 4 180 0.0 0.0 0.00 0.00 0.00 92 1005.5
20260503220246 4 180 0.0 0.0 0.00 0.00 0.00 93 1005.5
20260503220051 4 180 0.0 0.0 0.00 0.00 0.00 95 1005.6
20260503215647 4 180 0.0 0.0 0.00 0.00 0.00 95 1005.6
20260503215639 4 180 0.0 0.0 0.00 0.00 0.00 95 1005.6
20260503215510 4 180 0.0 0.0 0.00 0.00 0.00 95 1005.6
20260503215436 4 180 0.0 0.0 0.00 0.00 0.00 95 1005.6
20260503215240 4 180 0.0 0.0 0.00 0.00 0.00 96 1005.8
20260503215034 4 180 0.0 0.0 0.00 0.00 0.00 96 1005.8
20260503214834 4 180 0.0 0.0 0.00 0.00 0.00 96 1005.8
20260503214632 4 180 0.0 0.0 0.00 0.00 0.00 96 1005.8
20260503214431 4 180 0.0 0.0 0.00 0.00 0.00 95 1005.8
20260503214245 4 180 0.0 0.0 0.00 0.00 0.00 95 1005.8
20260503214030 4 180 0.0 0.0 0.00 0.00 0.00 95 1005.8
20260503213826 4 180 0.0 0.0 0.00 0.00 0.00 96 1005.8
20260503213626 4 180 0.0 0.0 0.00 0.00 0.00 94 1005.8
20260503213429 4 180 0.0 0.0 0.00 0.00 0.00 96 1005.8
20260503213224 4 180 0.0 0.0 0.00 0.00 0.00 96 1005.8
20260503213021 4 180 0.0 0.0 0.00 0.00 0.00 96 1005.6
20260503212907 4 180 0.0 0.0 0.00 0.00 0.00 97 1005.6
20260503212821 4 180 0.0 0.0 0.00 0.00 0.00 97 1005.6
20260503212618 4 180 0.0 0.0 0.00 0.00 0.00 96 1005.6
20260503212418 4 180 0.0 0.0 0.00 0.00 0.00 96 1005.6
20260503212216 4 180 0.0 0.0 0.00 0.00 0.00 96 1005.6
20260503212016 4 180 0.0 0.0 0.00 0.00 0.00 96 1005.5
20260503211814 4 180 0.0 0.0 0.00 0.00 0.00 96 1005.5
20260503211613 4 180 0.0 0.0 0.00 0.00 0.00 96 1005.5
20260503211412 4 180 0.0 0.0 0.00 0.00 0.00 96 1005.5
20260503211211 4 180 0.0 0.0 0.00 0.00 0.00 96 1005.5
20260503211016 4 180 0.0 0.0 0.00 0.00 0.00 96 1005.5
20260503210808 4 180 0.0 0.0 0.00 0.00 0.00 96 1005.5
20260503210606 4 180 0.0 0.0 0.00 0.00 0.00 96 1005.5
20260503210406 4 180 0.0 0.0 0.00 0.00 0.00 96 1005.4
20260503210203 4 180 0.0 0.0 0.00 0.00 0.00 95 1005.4
20260503210003 4 180 0.0 0.0 0.00 0.00 0.00 95 1005.4
20260503205800 4 180 0.0 0.0 0.00 0.00 0.00 96 1005.4
20260503205358 4 180 0.0 0.0 0.00 0.00 0.00 96 1005.4
20260503205158 4 180 0.0 0.0 0.00 0.00 0.00 96 1005.2
20260503204955 4 180 0.0 0.0 0.00 0.00 0.00 95 1005.2
20260503204755 4 180 0.0 0.0 0.00 0.00 0.00 96 1005.2
20260503204557 4 180 0.0 0.0 0.00 0.00 0.00 96 1005.1
20260503204400 4 180 0.0 0.0 0.00 0.00 0.00 96 1005.0
20260503204150 4 180 0.0 0.0 0.00 0.00 0.00 95 1005.1
20260503203950 4 180 0.0 0.0 0.00 0.00 0.00 97 1005.1
20260503203748 4 180 0.0 0.0 0.00 0.00 0.00 97 1005.0
20260503203556 4 180 0.0 0.0 0.00 0.00 0.00 97 1004.9
20260503203345 4 180 0.0 0.0 0.00 0.00 0.00 97 1005.1
20260503203146 4 180 0.0 0.0 0.00 0.00 0.00 97 1005.0
20260503202943 4 180 0.0 0.0 0.00 0.00 0.00 97 1005.0
20260503202340 4 180 0.0 0.0 0.00 0.00 0.00 98 1004.9
20260503202138 4 180 0.0 0.0 0.00 0.00 0.00 98 1004.9
20260503201938 4 180 0.0 0.0 0.00 0.00 0.00 99 1004.7
20260503201735 4 180 0.0 0.0 0.00 0.00 0.00 98 1004.7
20260503201536 4 180 0.0 0.0 0.00 0.00 0.00 98 1004.7
20260503201333 4 180 0.0 0.0 0.00 0.00 0.00 98 1004.7
20260503201209 4 180 0.0 0.0 0.00 0.00 0.00 98 1004.7
20260503201133 4 180 0.0 0.0 0.00 0.00 0.00 98 1004.7
20260503200933 4 180 0.0 0.0 0.00 0.00 0.00 97 1004.7
20260503200735 4 180 0.0 0.0 0.00 0.00 0.00 98 1004.6
20260503200527 4 180 0.0 0.0 0.00 0.00 0.00 98 1004.7
20260503200125 4 180 0.0 0.0 0.00 0.00 0.00 97 1004.5
20260503195926 4 180 0.0 0.0 0.00 0.00 0.00 97 1004.5
20260503195729 4 180 0.0 0.0 0.00 0.00 0.00 97 1004.5
20260503195523 4 180 0.0 0.0 0.00 0.00 0.00 96 1004.3
20260503195418 5 180 0.0 0.0 0.00 0.00 0.00 96 1004.3
20260503195320 5 180 0.0 0.0 0.00 0.00 0.00 96 1004.3
20260503194917 4 180 0.0 0.0 0.00 0.00 0.00 97 1004.2
20260503194833 5 180 0.0 0.0 0.00 0.00 0.00 97 1004.1
20260503194721 5 180 0.0 0.0 0.00 0.00 0.00 97 1004.1
20260503194521 4 180 0.0 0.0 0.00 0.00 0.00 97 1004.1
20260503194317 5 180 0.0 0.0 0.00 0.00 0.00 97 1004.1
20260503194113 5 180 0.0 0.0 0.00 0.00 0.00 97 1004.1
20260503193917 5 180 0.0 0.0 0.00 0.00 0.00 97 1004.0
20260503193510 4 180 0.0 0.0 0.00 0.00 0.00 97 1004.0
20260503193307 5 180 0.0 0.0 0.00 0.00 0.00 96 1003.8
20260503193107 5 180 0.0 0.0 0.00 0.00 0.00 96 1003.8
20260503192905 5 180 0.0 0.0 0.00 0.00 0.00 96 1003.8
20260503192705 5 180 0.0 0.0 0.00 0.00 0.00 96 1003.7
20260503192503 5 180 0.0 0.0 0.00 0.00 0.00 95 1003.7
20260503192305 5 180 0.0 0.0 0.00 0.00 0.00 95 1003.6
20260503192103 5 180 0.0 0.0 0.00 0.00 0.00 96 1003.7
20260503191900 5 180 0.0 0.0 0.00 0.00 0.00 96 1003.7
20260503191657 5 180 0.0 0.0 0.00 0.00 0.00 96 1003.6
20260503191457 5 180 0.0 0.0 0.00 0.00 0.00 96 1003.6
20260503191255 5 180 0.0 0.0 0.00 0.00 0.00 96 1003.7
20260503191055 5 180 0.0 0.0 0.00 0.00 0.00 95 1003.7
20260503190852 5 180 0.0 0.0 0.00 0.00 0.00 96 1003.7
20260503190652 5 180 0.0 0.0 0.00 0.00 0.00 96 1003.7
20260503190250 5 180 0.0 0.0 0.00 0.00 0.00 96 1003.7
20260503185847 5 180 0.0 0.0 0.00 0.00 0.00 95 1003.7
20260503185646 5 180 0.0 0.0 0.00 0.00 0.00 95 1003.6
20260503185445 5 180 0.0 0.0 0.00 0.00 0.00 95 1003.7
20260503185321 5 180 0.0 0.0 0.00 0.00 0.00 95 1003.6
20260503185246 5 180 0.0 0.0 0.00 0.00 0.00 95 1003.6
20260503184842 5 180 0.0 0.0 0.00 0.00 0.00 95 1003.6
20260503184641 5 180 0.0 0.0 0.00 0.00 0.00 95 1003.6
20260503184454 5 180 0.0 0.0 0.00 0.00 0.00 95 1003.4
20260503184438 5 180 0.0 0.0 0.00 0.00 0.00 95 1003.6
20260503184239 5 180 0.0 0.0 0.00 0.00 0.00 95 1003.4
20260503183841 5 180 0.0 0.0 0.00 0.00 0.00 94 1003.7
20260503183434 5 180 0.0 0.0 0.00 0.00 0.00 93 1003.7
20260503183232 5 180 0.0 0.0 0.00 0.00 0.00 94 1003.7
20260503183043 5 180 0.0 0.0 0.00 0.00 0.00 94 1003.7
20260503182828 5 180 0.0 0.0 0.00 0.00 0.00 94 1003.7
20260503182628 5 180 0.0 0.0 0.00 0.00 0.00 93 1003.8
20260503182426 5 180 0.0 0.0 0.00 0.00 0.00 93 1003.7
20260503182229 5 180 0.0 0.0 0.00 0.00 0.00 93 1003.7
20260503182027 5 180 0.0 0.0 0.00 0.00 0.00 94 1003.7
20260503181824 5 180 0.0 0.0 0.00 0.00 0.00 94 1003.7
20260503181621 5 180 0.0 0.0 0.00 0.00 0.00 94 1003.8
20260503181422 5 180 0.0 0.0 0.00 0.00 0.00 94 1004.0
20260503180816 5 180 0.0 0.0 0.00 0.00 0.00 95 1003.8
20260503180622 5 180 0.0 0.0 0.00 0.00 0.00 95 1004.0
20260503180216 5 180 0.0 0.0 0.00 0.00 0.00 95 1003.8
20260503175813 5 180 0.0 0.0 0.00 0.00 0.00 95 1004.0
20260503175607 5 180 0.0 0.0 0.00 0.00 0.00 95 1004.0
20260503175443 5 180 0.0 0.0 0.00 0.00 0.00 95 1004.0
20260503175411 5 180 0.0 0.0 0.00 0.00 0.00 95 1004.0
20260503175205 5 180 0.0 0.0 0.00 0.00 0.00 95 1004.1
20260503174803 5 180 0.0 0.0 0.00 0.00 0.00 93 1004.1
20260503174602 5 180 0.0 0.0 0.00 0.00 0.00 94 1004.1
20260503174401 5 180 0.0 0.0 0.00 0.00 0.00 94 1004.1
20260503174200 5 180 0.0 0.0 0.00 0.00 0.00 94 1004.1
20260503173758 5 180 0.0 0.0 0.00 0.00 0.00 95 1004.2
20260503173554 5 180 0.0 0.0 0.00 0.00 0.00 93 1004.2
20260503173357 5 180 0.0 0.0 0.00 0.00 0.00 94 1004.1
20260503173155 5 180 0.0 0.0 0.00 0.00 0.00 94 1004.2
20260503172952 5 180 0.0 0.0 0.00 0.00 0.00 94 1004.2
20260503172751 5 180 0.0 0.0 0.00 0.00 0.00 93 1004.2
20260503172554 5 180 0.0 0.0 0.00 0.00 0.00 93 1004.1
20260503172348 5 180 0.0 0.0 0.00 0.00 0.00 94 1004.2
20260503172151 5 180 0.0 0.0 0.00 0.00 0.00 93 1004.1
20260503171948 5 180 0.0 0.0 0.00 0.00 0.00 93 1004.0
20260503171837 5 180 0.0 0.0 0.00 0.00 0.00 93 1004.1
20260503171750 5 180 0.0 0.0 0.00 0.00 0.00 93 1004.1
20260503171546 5 180 0.0 0.0 0.00 0.00 0.00 93 1004.2
20260503171344 5 180 0.0 0.0 0.00 0.00 0.00 93 1004.1
20260503171143 5 180 0.0 0.0 0.00 0.00 0.00 93 1004.1
20260503170738 5 180 0.0 0.0 0.00 0.00 0.00 94 1004.1
20260503170336 5 180 0.0 0.0 0.00 0.00 0.00 93 1004.2